Address 0xf4646d1c467b8fdbc8f325cba742b49dcdf747b1

 
Txn Hash
Block
From
To
Value [Txn Fee]
0x85239b5eba76df032ec84286db81a2537bc0c296eb80eebc278dcde85689fcd982304192021-06-12 10:27:0459 mins ago0xf4646d1c467b8fdbc8f325cba742b49dcdf747b1OUT BUSD-T Stablecoin0 BNB0.000105575
0xae0a9ce396af9cf0c0d3b94b18831b664228f0449f8f3efaa183e55d05c6087282304102021-06-12 10:26:3759 mins ago0xf4646d1c467b8fdbc8f325cba742b49dcdf747b1OUT BUSD-T Stablecoin0 BNB0.000180695
0xbf29881121fcd6fd6a664a85d0087f09e3bf6a0729f67ed85307f3b89cbba76082303792021-06-12 10:25:041 hr 1 min ago0xf4646d1c467b8fdbc8f325cba742b49dcdf747b1OUT PancakeSwap: Router v20 BNB0.000820425
0x7b896682f1339c471241632b0f6a769c27c92526019a46d304fbabb0b3b9633882303432021-06-12 10:23:161 hr 2 mins ago0xf4646d1c467b8fdbc8f325cba742b49dcdf747b1OUT PancakeSwap: Router v20 BNB0.000955845
0x49e6963a64c546b9ae43a8926c634a2fabfc6f985072bc8f5906bf5f7c7f30d282302672021-06-12 10:19:281 hr 6 mins ago0xf4646d1c467b8fdbc8f325cba742b49dcdf747b1OUT PancakeSwap: Router v20 BNB0.000970425
0x3794a01f69b5f05e4e33c2dece34fdd746a0604ed96a313a65e9686e4b8d37ed82268052021-06-12 7:25:344 hrs ago0xf4646d1c467b8fdbc8f325cba742b49dcdf747b1OUT BUSD-T Stablecoin0 BNB0.000105695
0x19488049db48dcad24d535e56fe0dfed446b29a7b99734545b14836c5f6a4cb382267952021-06-12 7:25:044 hrs 1 min ago0xf4646d1c467b8fdbc8f325cba742b49dcdf747b1OUT PancakeSwap: Router v20 BNB0.000820485
0x4848f84ac2aee024e46c9f68afddd25ff3ccc200f7cc53bd2459b1ba7f974a3682267822021-06-12 7:24:254 hrs 1 min ago0xf4646d1c467b8fdbc8f325cba742b49dcdf747b1OUT 0x076ddce096c93dcf5d51fe346062bf0ba95234930 BNB0.000180845
0x1edc97b2498debb0a2a9878cabcc6154ac88c546a44e80db4220735bff1cfdae82267652021-06-12 7:23:344 hrs 2 mins ago0xf4646d1c467b8fdbc8f325cba742b49dcdf747b1OUT PancakeSwap: Router v20 BNB0.000955845
0xf1a060c0bbec62184c0e3c372cc90c68f3d4de3b0fa6bee183399fd198cb83ab82267482021-06-12 7:22:434 hrs 3 mins ago0xf4646d1c467b8fdbc8f325cba742b49dcdf747b1OUT PancakeSwap: Router v20 BNB0.000895425
0xbb2e9ac4fafe7d41c097122f90c468ebfc714257b2a52afefb81f180babc1a6a82267272021-06-12 7:21:404 hrs 4 mins ago0xf4646d1c467b8fdbc8f325cba742b49dcdf747b1OUT PancakeSwap: Router v20 BNB0.000970425
0xa356e97c25a2c7b91e14c9a5f3a6b33ab402278b4fc5f1d471f684cbf335fff382239382021-06-12 5:02:026 hrs 24 mins ago0xf4646d1c467b8fdbc8f325cba742b49dcdf747b1OUT BUSD-T Stablecoin0 BNB0.000105695
0x6c1b8f91c869ad0dbebdb0533722596786d49745af7b37c3ec368a1d8bf8967282238302021-06-12 4:56:386 hrs 29 mins ago0xf4646d1c467b8fdbc8f325cba742b49dcdf747b1OUT PancakeSwap: Router v20 BNB0.000895425
0x50afcc8ce4c16ce9eb04b230886caef10e5e7da2306743449ea2c89f68de563082223412021-06-12 3:42:117 hrs 43 mins ago0xf4646d1c467b8fdbc8f325cba742b49dcdf747b1OUT BUSD-T Stablecoin0 BNB0.000105635
0xb2305884ca19773ab4fc880d2479678aae448c5f6be473ba4b6cba94114e041182223272021-06-12 3:41:297 hrs 44 mins ago0xf4646d1c467b8fdbc8f325cba742b49dcdf747b1OUT Binance: BUSD Stablecoin0 BNB0.000255695
0x1e625f32de7694d4f85a69d215cac4b82adc69b8977beb175d67c32d6f7a4c5b82222282021-06-12 3:36:327 hrs 49 mins ago0xf4646d1c467b8fdbc8f325cba742b49dcdf747b1OUT PancakeSwap: Router v20 BNB0.000820025
0xbc7e0ced0d5f13c51aa3f05288972f7beaa1fb34f1373482bdfa44137faa098582209152021-06-12 2:30:158 hrs 55 mins ago0xf4646d1c467b8fdbc8f325cba742b49dcdf747b1OUT 0x076ddce096c93dcf5d51fe346062bf0ba95234930 BNB0.000106025
0xa95f4dd6e79f3868fcf0083275ff425cc130003d42bbd336a0b4f84b9e141a2282209002021-06-12 2:29:298 hrs 56 mins ago0xf4646d1c467b8fdbc8f325cba742b49dcdf747b1OUT PancakeSwap: Router v20 BNB0.000970865
0x7753522a726e12fad059098046c64b26b7385cfdb10d27ff4cc15b4e79cd2ed882204422021-06-12 2:06:359 hrs 19 mins ago0xf4646d1c467b8fdbc8f325cba742b49dcdf747b1OUT BUSD-T Stablecoin0 BNB0.000180575
0xa68eefc28cae47fc45b3bf79c8d5345057d2534ffddce631e9ae5399c683ff2982157742021-06-11 22:12:5013 hrs 13 mins ago0xf4646d1c467b8fdbc8f325cba742b49dcdf747b1OUT BUSD-T Stablecoin0 BNB0.000105695
0xa1cc0ce73f325b9d2d7eba6eb9cb3d9f6180c7e33a52e169640a41268ad3bdba82157652021-06-11 22:12:2313 hrs 13 mins ago0xf4646d1c467b8fdbc8f325cba742b49dcdf747b1OUT PancakeSwap: Router v20 BNB0.00060696
0xefa42da1a31b68093350e8028271fb08d5598bb5c1be970ab69171d12ee2fbc682154522021-06-11 21:56:4413 hrs 29 mins ago0xf4646d1c467b8fdbc8f325cba742b49dcdf747b1OUT PancakeSwap: Router v20 BNB0.000820085
0x2f0e837c4b453f2a87b0c3d31fb235ec32f1f02a948e872fd54a47fe7502afe782151002021-06-11 21:39:0813 hrs 46 mins ago0xf4646d1c467b8fdbc8f325cba742b49dcdf747b1OUT 0x076ddce096c93dcf5d51fe346062bf0ba95234930 BNB0.000106025
0x4dfa1b3d64115695d29b1dc39fee2b5c8c03467e8485c7a0a58a8192048352df82150912021-06-11 21:38:4113 hrs 47 mins ago0xf4646d1c467b8fdbc8f325cba742b49dcdf747b1OUT PancakeSwap: Router v20 BNB0.000970865
0x4c76b6a5c88637d6ed8c01a1104c54d25491150b113d5254c5be48c0a18e9c2a82150202021-06-11 21:35:0813 hrs 50 mins ago0xf4646d1c467b8fdbc8f325cba742b49dcdf747b1OUT 0x076ddce096c93dcf5d51fe346062bf0ba95234930 BNB0.000106025
[ Download CSV Export 
Latest 11 internal transactions
Parent Txn Hash Block From To Value
0x2dca5d2c9b6491197836cd422ac42ac9f85799fd371adedc66a43b4a7a5d3f5d81889512021-06-10 23:46:491 day 11 hrs ago PancakeSwap: Router v20xf4646d1c467b8fdbc8f325cba742b49dcdf747b10.112684728103918144 BNB
0x34b982ab877ae55e4716026951abc981bcdb861d52b6dfaa2d28866f7864773780953312021-06-07 17:30:434 days 17 hrs ago PancakeSwap: Router v20xf4646d1c467b8fdbc8f325cba742b49dcdf747b10.051284705817928534 BNB
0x140f6cb2d160b6f8fe0c69734bda1eba37b92bd17b75f043883e24031f91ee2279538852021-06-02 19:21:209 days 16 hrs ago PancakeSwap: Router v20xf4646d1c467b8fdbc8f325cba742b49dcdf747b10.048470287324833792 BNB
0xb067f1b8f0a99464317c828b100994ba3d86602e75e62c740b4a494aa75f68e479267172021-06-01 20:38:2910 days 14 hrs ago PancakeSwap: Router v20xf4646d1c467b8fdbc8f325cba742b49dcdf747b10.028323408556617419 BNB
0xf59684329881179932531efa3903cb6ff1b2af5cd8f5b6ca3e21f42fa992c57477813832021-05-27 19:05:5515 days 16 hrs ago Binance: WBNB Token0xf4646d1c467b8fdbc8f325cba742b49dcdf747b10.018139750385486894 BNB
0x9bfb472f018f045a792aca06634ab71e406260bb2b473bdad294b1392b7dc5b177793392021-05-27 17:23:3715 days 18 hrs ago PancakeSwap: Router v20xf4646d1c467b8fdbc8f325cba742b49dcdf747b10.013381647267488122 BNB
0x2e0412406ae02457d490c563fa15d148b7fed14f03dc4b35a780eeacae04859376583222021-05-23 11:53:3219 days 23 hrs ago PancakeSwap: Router v20xf4646d1c467b8fdbc8f325cba742b49dcdf747b10.034768371358351208 BNB
0xbab0a7dfec39d29cbf9a8733f33446410ca8bdaa04d49d237f17bb9171e1a4d576578422021-05-23 11:29:3219 days 23 hrs ago PancakeSwap: Router v20xf4646d1c467b8fdbc8f325cba742b49dcdf747b10.037901054402411232 BNB
0x6229f8b3966d9714bfb5bdd14dcb97277106ab35d64ffbe7707ac0b9abc959a276419542021-05-22 22:12:5620 days 13 hrs ago PancakeSwap: Router v20xf4646d1c467b8fdbc8f325cba742b49dcdf747b11 BNB
0x839486557d304095af81c530e09f1cd36c7eb19c98e3d99213964dff55dc73f476416442021-05-22 21:57:2620 days 13 hrs ago PancakeSwap: Router v20xf4646d1c467b8fdbc8f325cba742b49dcdf747b10.000000070167547855 BNB
0x941cb1acceb2534c691e051cd2c4fad42972968c6bdb9622665e714bca5a9e4175541862021-05-19 20:44:1123 days 14 hrs ago 0xd48745e39bbed146eec15b79cbf964884f9877c20xf4646d1c467b8fdbc8f325cba742b49dcdf747b13.461714540071776075 BNB
[ Download CSV Export 
Loading

Contract Name:
0 BNB

Compiler Version
0

Optimization Enabled:
0 BNB

Other Settings:
-NA-
Block Transaction Gas Used Reward
Age Block Fee Address BC Fee Address Voting Power Jailed Incoming
Block Uncle Number Difficulty Gas Used Reward
Loading
Loading
Make sure to use the "Vote Down" button for any spammy posts, and the "Vote Up" for interesting conversations.